Location: Navajo
(48.7922°N, 105.0603°W)
Time: 15:20:07
(UTC+00:00)

QB50P2 - Pass Details

Date: 04 July 2022
Orbit: 590 x 605 km, 97.9° (Epoch: 06 August)

Event Time Altitude Azimuth Distance (km) Brightness Sun altitude
Rises 08:39:19 0° 12° (NNE) 2,862 ? -15.3°
Reaches altitude 10° 08:41:29 10° 12° (NNE) 1,957 ? -15.2°
Maximum altitude 08:45:44 80° 286° (WNW) 620 ? -14.9°
Enters shadow 08:48:09 25° 202° (SSW) 1,219 ? -14.7°
